Weather Roundup
Issued by NWS

Home | Current Version | Previous Version | Graphics & Text | Print | Product List | Glossary Off
Versions: 1 2 3 4 5 6 7 8 9 10 11 12 13 14 15 16 17 18 19 20 21 22 23 24 25 26 27 28 29 30 31 32 33 34 35 36 37 38 39 40 41 42 43 44 45 46 47 48 49 50

000
NZUS93 KARX 271259
HRRWXR

CURRENT HOURLY OBSERVATIONS ACROSS
MUCH OF THE UPPER MISSISSIPPI VALLEY
NATIONAL WEATHER SERVICE LA CROSSE WI
800 AM CDT THU JUL 27 2017


...SOUTHEAST MINNESOTA...


CITY           SKY/WX    TMP DP  RH WIND       PRES   REMARKS
ROCHESTER      SUNNY     68  64  87 N7        30.07R
ROCHESTER/MAYO FAIR      67  63  86 CALM      30.07R
WINONA         FOG       63  63 100 CALM      30.05R VSB 1/2
AUSTIN         SUNNY     66  63  88 N5        30.06R
ALBERT LEA     SUNNY     70  64  83 N5        30.07R
DODGE CENTER   SUNNY     66  63  88 N3        30.07R
PRESTON        SUNNY     66  62  85 N3        30.07R
OWATONNA       SUNNY     66  64  94 CALM      30.07S
FARIBAULT      SUNNY     68  64  88 N3        30.07S
$$

...ELSEWHERE IN MINNESOTA...


CITY           SKY/WX    TMP DP  RH WIND       PRES   REMARKS
MINNEAPOLIS    SUNNY     71  61  70 CALM      30.07R
INTNL FALLS    SUNNY     64  60  87 CALM      30.10S
DULUTH         SUNNY     67  62  84 N5        30.09S
RED WING       SUNNY     68  63  83 W3        30.05R
REDWOOD FALLS  SUNNY     67  60  78 VRB3      30.09R
MANKATO        SUNNY     68  63  84 N5        30.08R
WORTHINGTON    SUNNY     65  62  90 N6        30.13R
FAIRMONT       SUNNY     66  64  93 N5        30.09R
$$

...SOUTHWEST WISCONSIN...


CITY           SKY/WX    TMP DP  RH WIND       PRES   REMARKS
LA CROSSE      SUNNY     71  67  87 N7        30.03R
PRAIRIE DU CHI SUNNY     72  66  82 N6        30.01R
BOSCOBEL       SUNNY     72  67  84 NE3       30.01R
LONE ROCK      SUNNY     71  67  87 NE9       30.00R
PLATTEVILLE    MOSUNNY   71  71 100 NE10      30.00S
FORT MC COY    SUNNY     61  61 100 CALM      30.04R
MAUSTON-NEW LI SUNNY     66  64  94 NW5       30.03R
VIROQUA        FAIR      67  63  87 CALM      30.04R
WIS DELLS      SUNNY     67  64  88 NE5       30.02R
$$

...ELSEWHERE IN WISCONSIN...


CITY           SKY/WX    TMP DP  RH WIND       PRES   REMARKS
MILWAUKEE      CLOUDY    71  70  96 N13       29.96R
MADISON        PTSUNNY   69  67  93 NE12      29.99R
GREEN BAY      SUNNY     70  65  84 NE7       30.02R
EAU CLAIRE     NOT AVBL
BLACK RVR FLS  FAIR      65  65 100 CALM      30.04R
MEDFORD        SUNNY     62  59  92 NE5       30.06R
WAUSAU         SUNNY     66  60  81 N5        30.04R
WIS RAPIDS     SUNNY     70  60  70 E6        30.05R
MARSHFIELD     SUNNY     69  59  70 NE7       30.04S
RICE LAKE      SUNNY     63  62  98 CALM      30.09R
$$

...NORTHEAST IOWA...


CITY           SKY/WX    TMP DP  RH WIND       PRES   REMARKS
WATERLOO       MOSUNNY   70  64  81 N9        30.00S
DUBUQUE        SUNNY     72  70  93 NE13      29.99S
DECORAH        SUNNY     68  64  88 N6        30.03R
MASON CITY     SUNNY     67  63  87 N7        30.07R
CHARLES CITY   SUNNY     68  66  94 N6        30.05R
OELWEIN        SUNNY     70  68  94 NE9       30.02S
$$

...ELSEWHERE IN IOWA...


CITY           SKY/WX    TMP DP  RH WIND       PRES   REMARKS
DES MOINES     MOSUNNY   73  67  81 NE10      30.00R
IOWA CITY      CLOUDY    75  70  84 NE7       29.98R
FORT DODGE     SUNNY     66  63  88 N5        30.06S
MARSHALLTOWN   SUNNY     71  67  87 N7        30.01R
CEDAR RAPIDS   NOT AVBL
$$

...NORTHERN ILLINOIS...


CITY           SKY/WX    TMP DP  RH WIND       PRES   REMARKS
CHICAGO-OHARE  PTSUNNY   77  69  76 N8        29.93S
CHICAGO-MIDWAY PTSUNNY   76  71  85 NW6       29.93R
MOLINE         CLOUDY    73  69  87 NE5       29.96R
ROCKFORD       CLOUDY    75  70  84 NE12      29.96F HAZE
PEORIA         CLOUDY    74  73  97 CALM      29.94S
$$

NOTE: "FAIR" INDICATES FEW OR NO CLOUDS BELOW 12,000 FEET WITH NO
SIGNIFICANT WEATHER AND/OR OBSTRUCTIONS TO VISIBILITY. WIND
SPEEDS ARE IN MILES-PER-HOUR.




USA.gov is the U.S. government's official web portal to all federal, state and local government web resources and services.